owner,sensor,date,latitude,longitude,vertical_datum,wind_speed,wind_to_direction,wind_speed_of_gust,qcFlag 
TCOON,ioos:station:TCOON:031:1,2009-08-01T00:00:00Z,28.4073,-96.7122,0.0,8.5,111.0,12.2,'11111222,11111222,11111222' 
TCOON,ioos:station:TCOON:031:1,2009-08-01T01:00:00Z,28.4073,-96.7122,0.0,8.0,108.0,11.2,'11111222,11111222,11111222' 
TCOON,ioos:station:TCOON:031:1,2009-08-01T03:00:00Z,28.4073,-96.7122,0.0,8.2,116.0,11.6,'11111222,11111222,11111222' 
TCOON,ioos:station:TCOON:031:1,2009-08-01T04:00:00Z,28.4073,-96.7122,0.0,8.5,115.0,11.5,'11111222,11111222,11111222' 
TCOON,ioos:station:TCOON:031:1,2009-08-01T05:00:00Z,28.4073,-96.7122,0.0,8.4,111.0,10.3,'11111222,11111222,11111222' 
TCOON,ioos:station:TCOON:031:1,2009-08-01T06:00:00Z,28.4073,-96.7122,0.0,9.2,122.0,11.3,'11111222,11111222,11111222' 
TCOON,ioos:station:TCOON:031:1,2009-08-01T07:00:00Z,28.4073,-96.7122,0.0,9.7,120.0,12.0,'11111222,11111222,11111222' 
TCOON,ioos:station:TCOON:031:1,2009-08-01T08:00:00Z,28.4073,-96.7122,0.0,10.0,137.0,11.6,'11111222,11111222,11111222' 
TCOON,ioos:station:TCOON:031:1,2009-08-01T09:00:00Z,28.4073,-96.7122,0.0,8.7,135.0,10.5,'11111222,11111222,11111222' 
TCOON,ioos:station:TCOON:031:1,2009-08-01T10:00:00Z,28.4073,-96.7122,0.0,9.0,141.0,10.6,'11111222,11111222,11111222' 
TCOON,ioos:station:TCOON:031:1,2009-08-01T11:00:00Z,28.4073,-96.7122,0.0,9.8,138.0,10.9,'11111222,11111222,11111222' 
TCOON,ioos:station:TCOON:031:1,2009-08-01T12:00:00Z,28.4073,-96.7122,0.0,8.5,134.0,9.9,'11111222,11111222,11111222' 
TCOON,ioos:station:TCOON:031:1,2009-08-01T13:00:00Z,28.4073,-96.7122,0.0,8.4,139.0,9.9,'11111222,11111222,11111222' 
TCOON,ioos:station:TCOON:031:1,2009-08-01T14:00:00Z,28.4073,-96.7122,0.0,9.0,147.0,10.1,'11111222,11111222,11111222' 
TCOON,ioos:station:TCOON:031:1,2009-08-01T15:00:00Z,28.4073,-96.7122,0.0,8.2,138.0,9.1,'11111222,11111222,11111222' 
TCOON,ioos:station:TCOON:031:1,2009-08-01T16:00:00Z,28.4073,-96.7122,0.0,7.3,141.0,9.1,'11111222,11111222,11111222' 
TCOON,ioos:station:TCOON:031:1,2009-08-01T17:00:00Z,28.4073,-96.7122,0.0,7.6,139.0,9.3,'11111222,11111222,11111222' 
TCOON,ioos:station:TCOON:031:1,2009-08-01T18:00:00Z,28.4073,-96.7122,0.0,8.4,137.0,10.0,'11111222,11111222,11111222' 
TCOON,ioos:station:TCOON:031:1,2009-08-01T19:00:00Z,28.4073,-96.7122,0.0,7.9,125.0,9.2,'11111222,11111222,11111222' 
TCOON,ioos:station:TCOON:031:1,2009-08-01T20:00:00Z,28.4073,-96.7122,0.0,8.1,133.0,8.9,'11111222,11111222,11111222' 
TCOON,ioos:station:TCOON:031:1,2009-08-01T21:00:00Z,28.4073,-96.7122,0.0,8.1,123.0,10.8,'11111222,11111222,11111222' 
TCOON,ioos:station:TCOON:031:1,2009-08-01T22:00:00Z,28.4073,-96.7122,0.0,8.6,115.0,10.8,'11111222,11111222,11111222' 
TCOON,ioos:station:TCOON:031:1,2009-08-01T23:00:00Z,28.4073,-96.7122,0.0,8.5,106.0,11.8,'11111222,11111222,11111222' 
TCOON,ioos:station:TCOON:031:1,2009-08-02T00:00:00Z,28.4073,-96.7122,0.0,9.3,111.0,11.1,'11111222,11111222,11111222' 
TCOON,ioos:station:TCOON:031:1,2009-08-02T01:00:00Z,28.4073,-96.7122,0.0,6.8,98.0,8.9,'11111222,11111222,11111222' 
TCOON,ioos:station:TCOON:031:1,2009-08-02T02:00:00Z,28.4073,-96.7122,0.0,7.5,105.0,8.8,'11111222,11111222,11111222' 
TCOON,ioos:station:TCOON:031:1,2009-08-02T03:00:00Z,28.4073,-96.7122,0.0,5.6,102.0,7.1,'11111222,11111222,11111222' 
TCOON,ioos:station:TCOON:031:1,2009-08-02T04:00:00Z,28.4073,-96.7122,0.0,5.7,102.0,7.3,'11111222,11111222,11111222' 
TCOON,ioos:station:TCOON:031:1,2009-08-02T06:00:00Z,28.4073,-96.7122,0.0,5.1,110.0,6.6,'11111222,11111222,11111222' 
TCOON,ioos:station:TCOON:031:1,2009-08-02T07:00:00Z,28.4073,-96.7122,0.0,6.2,120.0,7.4,'11111222,11111222,11111222' 
TCOON,ioos:station:TCOON:031:1,2009-08-02T08:00:00Z,28.4073,-96.7122,0.0,7.6,127.0,9.0,'11111222,11111222,11111222' 
TCOON,ioos:station:TCOON:031:1,2009-08-02T09:00:00Z,28.4073,-96.7122,0.0,8.6,136.0,10.1,'11111222,11111222,11111222' 
TCOON,ioos:station:TCOON:031:1,2009-08-02T10:00:00Z,28.4073,-96.7122,0.0,8.3,140.0,10.0,'11111222,11111222,11111222' 
TCOON,ioos:station:TCOON:031:1,2009-08-02T11:00:00Z,28.4073,-96.7122,0.0,7.9,142.0,10.1,'11111222,11111222,11111222' 
TCOON,ioos:station:TCOON:031:1,2009-08-02T12:00:00Z,28.4073,-96.7122,0.0,7.6,142.0,9.4,'11111222,11111222,11111222' 
TCOON,ioos:station:TCOON:031:1,2009-08-02T13:00:00Z,28.4073,-96.7122,0.0,6.4,143.0,8.5,'11111222,11111222,11111222' 
TCOON,ioos:station:TCOON:031:1,2009-08-02T14:00:00Z,28.4073,-96.7122,0.0,5.8,144.0,7.9,'11111222,11111222,11111222' 
TCOON,ioos:station:TCOON:031:1,2009-08-02T15:00:00Z,28.4073,-96.7122,0.0,5.9,147.0,6.8,'11111222,11111222,11111222' 
TCOON,ioos:station:TCOON:031:1,2009-08-02T16:00:00Z,28.4073,-96.7122,0.0,5.3,144.0,6.7,'11111222,11111222,11111222' 
TCOON,ioos:station:TCOON:031:1,2009-08-02T17:00:00Z,28.4073,-96.7122,0.0,5.3,126.0,6.0,'11111222,11111222,11111222' 
TCOON,ioos:station:TCOON:031:1,2009-08-02T18:00:00Z,28.4073,-96.7122,0.0,5.3,124.0,6.4,'11111222,11111222,11111222' 
TCOON,ioos:station:TCOON:031:1,2009-08-02T19:00:00Z,28.4073,-96.7122,0.0,6.0,132.0,6.8,'11111222,11111222,11111222' 
TCOON,ioos:station:TCOON:031:1,2009-08-02T20:00:00Z,28.4073,-96.7122,0.0,6.3,137.0,7.5,'11111222,11111222,11111222' 
TCOON,ioos:station:TCOON:031:1,2009-08-02T21:00:00Z,28.4073,-96.7122,0.0,6.7,140.0,7.6,'11111222,11111222,11111222' 
TCOON,ioos:station:TCOON:031:1,2009-08-02T22:00:00Z,28.4073,-96.7122,0.0,6.7,127.0,7.9,'11111222,11111222,11111222' 
TCOON,ioos:station:TCOON:031:1,2009-08-02T23:00:00Z,28.4073,-96.7122,0.0,6.8,133.0,8.8,'11111222,11111222,11111222' 
TCOON,ioos:station:TCOON:031:1,2009-08-03T00:00:00Z,28.4073,-96.7122,0.0,6.7,124.0,8.1,'11111222,11111222,11111222' 
TCOON,ioos:station:TCOON:031:1,2009-08-03T01:00:00Z,28.4073,-96.7122,0.0,5.9,106.0,6.9,'11111222,11111222,11111222' 
TCOON,ioos:station:TCOON:031:1,2009-08-03T02:00:00Z,28.4073,-96.7122,0.0,4.4,115.0,5.7,'11111222,11111222,11111222' 
TCOON,ioos:station:TCOON:031:1,2009-08-03T03:00:00Z,28.4073,-96.7122,0.0,5.4,113.0,6.7,'11111222,11111222,11111222' 
TCOON,ioos:station:TCOON:031:1,2009-08-03T04:00:00Z,28.4073,-96.7122,0.0,5.8,111.0,7.0,'11111222,11111222,11111222' 
TCOON,ioos:station:TCOON:031:1,2009-08-03T05:00:00Z,28.4073,-96.7122,0.0,7.6,123.0,8.8,'11111222,11111222,11111222' 
TCOON,ioos:station:TCOON:031:1,2009-08-03T06:00:00Z,28.4073,-96.7122,0.0,7.7,124.0,9.4,'11111222,11111222,11111222' 
TCOON,ioos:station:TCOON:031:1,2009-08-03T07:00:00Z,28.4073,-96.7122,0.0,8.8,130.0,9.6,'11111222,11111222,11111222' 
TCOON,ioos:station:TCOON:031:1,2009-08-03T08:00:00Z,28.4073,-96.7122,0.0,7.5,139.0,9.7,'11111222,11111222,11111222' 
TCOON,ioos:station:TCOON:031:1,2009-08-03T09:00:00Z,28.4073,-96.7122,0.0,7.5,127.0,8.2,'11111222,11111222,11111222' 
TCOON,ioos:station:TCOON:031:1,2009-08-03T10:00:00Z,28.4073,-96.7122,0.0,6.7,128.0,8.6,'11111222,11111222,11111222' 
TCOON,ioos:station:TCOON:031:1,2009-08-03T11:00:00Z,28.4073,-96.7122,0.0,6.2,128.0,7.1,'11111222,11111222,11111222' 
TCOON,ioos:station:TCOON:031:1,2009-08-03T12:00:00Z,28.4073,-96.7122,0.0,5.2,127.0,5.9,'11111222,11111222,11111222' 
TCOON,ioos:station:TCOON:031:1,2009-08-03T13:00:00Z,28.4073,-96.7122,0.0,5.1,127.0,5.6,'11111222,11111222,11111222' 
TCOON,ioos:station:TCOON:031:1,2009-08-03T14:00:00Z,28.4073,-96.7122,0.0,3.5,132.0,4.3,'11111222,11111222,11111222' 
TCOON,ioos:station:TCOON:031:1,2009-08-03T15:00:00Z,28.4073,-96.7122,0.0,5.3,131.0,6.2,'11111222,11111222,11111222' 
TCOON,ioos:station:TCOON:031:1,2009-08-03T16:00:00Z,28.4073,-96.7122,0.0,5.6,126.0,6.3,'11111222,11111222,11111222' 
TCOON,ioos:station:TCOON:031:1,2009-08-03T17:00:00Z,28.4073,-96.7122,0.0,5.0,135.0,6.7,'11111222,11111222,11111222' 
TCOON,ioos:station:TCOON:031:1,2009-08-03T18:00:00Z,28.4073,-96.7122,0.0,5.8,135.0,7.1,'11111222,11111222,11111222' 
TCOON,ioos:station:TCOON:031:1,2009-08-03T19:00:00Z,28.4073,-96.7122,0.0,6.9,135.0,7.6,'11111222,11111222,11111222' 
TCOON,ioos:station:TCOON:031:1,2009-08-03T20:00:00Z,28.4073,-96.7122,0.0,7.0,124.0,9.2,'11111222,11111222,11111222' 
TCOON,ioos:station:TCOON:031:1,2009-08-03T21:00:00Z,28.4073,-96.7122,0.0,7.9,130.0,9.4,'11111222,11111222,11111222' 
TCOON,ioos:station:TCOON:031:1,2009-08-03T22:00:00Z,28.4073,-96.7122,0.0,7.0,112.0,8.2,'11111222,11111222,11111222' 
TCOON,ioos:station:TCOON:031:1,2009-08-03T23:00:00Z,28.4073,-96.7122,0.0,7.1,109.0,9.4,'11111222,11111222,11111222' 
TCOON,ioos:station:TCOON:031:1,2009-08-04T00:00:00Z,28.4073,-96.7122,0.0,7.4,126.0,9.3,'11111222,11111222,11111222' 
TCOON,ioos:station:TCOON:031:1,2009-08-04T01:00:00Z,28.4073,-96.7122,0.0,5.6,105.0,8.4,'11111222,11111222,11111222' 
TCOON,ioos:station:TCOON:031:1,2009-08-04T02:00:00Z,28.4073,-96.7122,0.0,5.1,98.0,6.5,'11111222,11111222,11111222' 
TCOON,ioos:station:TCOON:031:1,2009-08-04T03:00:00Z,28.4073,-96.7122,0.0,4.8,108.0,6.5,'11111222,11111222,11111222' 
TCOON,ioos:station:TCOON:031:1,2009-08-04T04:00:00Z,28.4073,-96.7122,0.0,5.5,112.0,7.1,'11111222,11111222,11111222' 
TCOON,ioos:station:TCOON:031:1,2009-08-04T05:00:00Z,28.4073,-96.7122,0.0,5.3,114.0,6.3,'11111222,11111222,11111222' 
TCOON,ioos:station:TCOON:031:1,2009-08-04T06:00:00Z,28.4073,-96.7122,0.0,5.4,110.0,6.7,'11111222,11111222,11111222' 
TCOON,ioos:station:TCOON:031:1,2009-08-04T07:00:00Z,28.4073,-96.7122,0.0,6.8,119.0,8.4,'11111222,11111222,11111222' 
TCOON,ioos:station:TCOON:031:1,2009-08-04T08:00:00Z,28.4073,-96.7122,0.0,5.3,116.0,6.9,'11111222,11111222,11111222' 
TCOON,ioos:station:TCOON:031:1,2009-08-04T09:00:00Z,28.4073,-96.7122,0.0,5.4,123.0,6.8,'11111222,11111222,11111222' 
TCOON,ioos:station:TCOON:031:1,2009-08-04T10:00:00Z,28.4073,-96.7122,0.0,5.3,117.0,6.5,'11111222,11111222,11111222' 
TCOON,ioos:station:TCOON:031:1,2009-08-04T11:00:00Z,28.4073,-96.7122,0.0,5.8,125.0,6.5,'11111222,11111222,11111222' 
TCOON,ioos:station:TCOON:031:1,2009-08-04T12:00:00Z,28.4073,-96.7122,0.0,5.2,130.0,6.0,'11111222,11111222,11111222' 
TCOON,ioos:station:TCOON:031:1,2009-08-04T13:00:00Z,28.4073,-96.7122,0.0,4.7,139.0,6.3,'11111222,11111222,11111222' 
TCOON,ioos:station:TCOON:031:1,2009-08-04T14:00:00Z,28.4073,-96.7122,0.0,5.9,136.0,7.0,'11111222,11111222,11111222' 
TCOON,ioos:station:TCOON:031:1,2009-08-04T15:00:00Z,28.4073,-96.7122,0.0,5.0,145.0,6.3,'11111222,11111222,11111222' 
TCOON,ioos:station:TCOON:031:1,2009-08-04T16:00:00Z,28.4073,-96.7122,0.0,4.8,141.0,5.8,'11111222,11111222,11111222' 
TCOON,ioos:station:TCOON:031:1,2009-08-04T17:00:00Z,28.4073,-96.7122,0.0,4.4,134.0,5.4,'11111222,11111222,11111222' 
TCOON,ioos:station:TCOON:031:1,2009-08-04T18:00:00Z,28.4073,-96.7122,0.0,5.2,139.0,6.6,'11111222,11111222,11111222' 
TCOON,ioos:station:TCOON:031:1,2009-08-04T19:00:00Z,28.4073,-96.7122,0.0,6.5,139.0,7.3,'11111222,11111222,11111222' 
TCOON,ioos:station:TCOON:031:1,2009-08-04T20:00:00Z,28.4073,-96.7122,0.0,6.6,132.0,7.7,'11111222,11111222,11111222' 
TCOON,ioos:station:TCOON:031:1,2009-08-04T21:00:00Z,28.4073,-96.7122,0.0,7.5,132.0,8.3,'11111222,11111222,11111222' 
TCOON,ioos:station:TCOON:031:1,2009-08-04T22:00:00Z,28.4073,-96.7122,0.0,7.0,119.0,8.8,'11111222,11111222,11111222' 
TCOON,ioos:station:TCOON:031:1,2009-08-04T23:00:00Z,28.4073,-96.7122,0.0,7.5,119.0,9.4,'11111222,11111222,11111222' 
TCOON,ioos:station:TCOON:031:1,2009-08-05T00:00:00Z,28.4073,-96.7122,0.0,6.7,122.0,8.5,'11111222,11111222,11111222' 
TCOON,ioos:station:TCOON:031:1,2009-08-05T01:00:00Z,28.4073,-96.7122,0.0,6.2,114.0,8.0,'11111222,11111222,11111222' 
TCOON,ioos:station:TCOON:031:1,2009-08-05T02:00:00Z,28.4073,-96.7122,0.0,4.2,107.0,6.2,'11111222,11111222,11111222' 
TCOON,ioos:station:TCOON:031:1,2009-08-05T03:00:00Z,28.4073,-96.7122,0.0,5.0,107.0,6.3,'11111222,11111222,11111222' 
TCOON,ioos:station:TCOON:031:1,2009-08-05T04:00:00Z,28.4073,-96.7122,0.0,5.8,106.0,6.4,'11111222,11111222,11111222' 
TCOON,ioos:station:TCOON:031:1,2009-08-05T05:00:00Z,28.4073,-96.7122,0.0,5.0,109.0,6.9,'11111222,11111222,11111222' 
TCOON,ioos:station:TCOON:031:1,2009-08-05T06:00:00Z,28.4073,-96.7122,0.0,4.9,117.0,6.1,'11111222,11111222,11111222' 
TCOON,ioos:station:TCOON:031:1,2009-08-05T07:00:00Z,28.4073,-96.7122,0.0,5.3,113.0,6.2,'11111222,11111222,11111222' 
TCOON,ioos:station:TCOON:031:1,2009-08-05T08:00:00Z,28.4073,-96.7122,0.0,6.1,125.0,7.7,'11111222,11111222,11111222' 
TCOON,ioos:station:TCOON:031:1,2009-08-05T09:00:00Z,28.4073,-96.7122,0.0,5.3,130.0,7.1,'11111222,11111222,11111222' 
TCOON,ioos:station:TCOON:031:1,2009-08-05T10:00:00Z,28.4073,-96.7122,0.0,4.8,130.0,6.3,'11111222,11111222,11111222' 
TCOON,ioos:station:TCOON:031:1,2009-08-05T11:00:00Z,28.4073,-96.7122,0.0,4.7,133.0,6.1,'11111222,11111222,11111222' 
TCOON,ioos:station:TCOON:031:1,2009-08-05T12:00:00Z,28.4073,-96.7122,0.0,4.3,150.0,4.9,'11111222,11111222,11111222' 
TCOON,ioos:station:TCOON:031:1,2009-08-05T13:00:00Z,28.4073,-96.7122,0.0,4.1,142.0,5.0,'11111222,11111222,11111222' 
TCOON,ioos:station:TCOON:031:1,2009-08-05T14:00:00Z,28.4073,-96.7122,0.0,4.4,156.0,5.0,'11111222,11111222,11111222' 
TCOON,ioos:station:TCOON:031:1,2009-08-05T15:00:00Z,28.4073,-96.7122,0.0,2.5,158.0,3.3,'11111222,11111222,11111222' 
TCOON,ioos:station:TCOON:031:1,2009-08-05T16:00:00Z,28.4073,-96.7122,0.0,2.8,150.0,3.8,'11111222,11111222,11111222' 
TCOON,ioos:station:TCOON:031:1,2009-08-05T17:00:00Z,28.4073,-96.7122,0.0,3.8,131.0,4.8,'11111222,11111222,11111222' 
TCOON,ioos:station:TCOON:031:1,2009-08-05T18:00:00Z,28.4073,-96.7122,0.0,4.4,134.0,5.6,'11111222,11111222,11111222' 
TCOON,ioos:station:TCOON:031:1,2009-08-05T19:00:00Z,28.4073,-96.7122,0.0,5.7,144.0,6.5,'11111222,11111222,11111222' 
TCOON,ioos:station:TCOON:031:1,2009-08-05T20:00:00Z,28.4073,-96.7122,0.0,6.5,147.0,7.6,'11111222,11111222,11111222' 
TCOON,ioos:station:TCOON:031:1,2009-08-05T22:00:00Z,28.4073,-96.7122,0.0,5.8,125.0,7.6,'11111222,11111222,11111222' 
TCOON,ioos:station:TCOON:031:1,2009-08-05T23:00:00Z,28.4073,-96.7122,0.0,7.1,131.0,8.1,'11111222,11111222,11111222' 
TCOON,ioos:station:TCOON:031:1,2009-08-06T00:00:00Z,28.4073,-96.7122,0.0,5.3,119.0,6.8,'11111222,11111222,11111222' 
TCOON,ioos:station:TCOON:031:1,2009-08-06T01:00:00Z,28.4073,-96.7122,0.0,6.0,125.0,7.0,'11111222,11111222,11111222' 
TCOON,ioos:station:TCOON:031:1,2009-08-06T02:00:00Z,28.4073,-96.7122,0.0,5.3,120.0,6.3,'11111222,11111222,11111222' 
TCOON,ioos:station:TCOON:031:1,2009-08-06T03:00:00Z,28.4073,-96.7122,0.0,4.4,114.0,5.1,'11111222,11111222,11111222' 
TCOON,ioos:station:TCOON:031:1,2009-08-06T04:00:00Z,28.4073,-96.7122,0.0,5.5,118.0,6.7,'11111222,11111222,11111222' 
TCOON,ioos:station:TCOON:031:1,2009-08-06T05:00:00Z,28.4073,-96.7122,0.0,7.2,123.0,8.3,'11111222,11111222,11111222' 
TCOON,ioos:station:TCOON:031:1,2009-08-06T06:00:00Z,28.4073,-96.7122,0.0,7.8,130.0,8.7,'11111222,11111222,11111222' 
TCOON,ioos:station:TCOON:031:1,2009-08-06T07:00:00Z,28.4073,-96.7122,0.0,8.9,146.0,10.2,'11111222,11111222,11111222' 
TCOON,ioos:station:TCOON:031:1,2009-08-06T08:00:00Z,28.4073,-96.7122,0.0,6.6,138.0,8.1,'11111222,11111222,11111222' 
TCOON,ioos:station:TCOON:031:1,2009-08-06T09:00:00Z,28.4073,-96.7122,0.0,7.4,140.0,7.7,'11111222,11111222,11111222' 
TCOON,ioos:station:TCOON:031:1,2009-08-06T10:00:00Z,28.4073,-96.7122,0.0,6.0,152.0,7.0,'11111222,11111222,11111222' 
TCOON,ioos:station:TCOON:031:1,2009-08-06T11:00:00Z,28.4073,-96.7122,0.0,5.8,197.0,6.7,'11111222,11111222,11111222' 
TCOON,ioos:station:TCOON:031:1,2009-08-06T12:00:00Z,28.4073,-96.7122,0.0,4.6,201.0,5.3,'11111222,11111222,11111222' 
TCOON,ioos:station:TCOON:031:1,2009-08-06T13:00:00Z,28.4073,-96.7122,0.0,4.3,212.0,5.9,'11111222,11111222,11111222' 
TCOON,ioos:station:TCOON:031:1,2009-08-06T14:00:00Z,28.4073,-96.7122,0.0,2.2,245.0,2.9,'11111222,11111222,11111222' 
TCOON,ioos:station:TCOON:031:1,2009-08-06T15:00:00Z,28.4073,-96.7122,0.0,1.2,216.0,1.7,'11111222,11111222,11111222' 
TCOON,ioos:station:TCOON:031:1,2009-08-06T16:00:00Z,28.4073,-96.7122,0.0,1.5,170.0,1.6,'11111222,11111222,11111222' 
TCOON,ioos:station:TCOON:031:1,2009-08-06T17:00:00Z,28.4073,-96.7122,0.0,4.4,129.0,5.5,'11111222,11111222,11111222' 
TCOON,ioos:station:TCOON:031:1,2009-08-06T18:00:00Z,28.4073,-96.7122,0.0,5.6,134.0,6.4,'11111222,11111222,11111222' 
TCOON,ioos:station:TCOON:031:1,2009-08-06T19:00:00Z,28.4073,-96.7122,0.0,6.5,134.0,7.7,'11111222,11111222,11111222' 
TCOON,ioos:station:TCOON:031:1,2009-08-06T21:00:00Z,28.4073,-96.7122,0.0,6.3,126.0,8.6,'11111222,11111222,11111222' 
TCOON,ioos:station:TCOON:031:1,2009-08-06T22:00:00Z,28.4073,-96.7122,0.0,6.3,128.0,8.5,'11111222,11111222,11111222' 
TCOON,ioos:station:TCOON:031:1,2009-08-06T23:00:00Z,28.4073,-96.7122,0.0,7.6,128.0,8.7,'11111222,11111222,11111222' 
TCOON,ioos:station:TCOON:031:1,2009-08-07T00:00:00Z,28.4073,-96.7122,0.0,7.8,123.0,9.2,'11111222,11111222,11111222' 
TCOON,ioos:station:TCOON:031:1,2009-08-07T01:00:00Z,28.4073,-96.7122,0.0,7.0,129.0,8.4,'11111222,11111222,11111222' 
TCOON,ioos:station:TCOON:031:1,2009-08-07T02:00:00Z,28.4073,-96.7122,0.0,5.2,117.0,6.3,'11111222,11111222,11111222' 
TCOON,ioos:station:TCOON:031:1,2009-08-07T03:00:00Z,28.4073,-96.7122,0.0,5.6,118.0,7.4,'11111222,11111222,11111222' 
TCOON,ioos:station:TCOON:031:1,2009-08-07T04:00:00Z,28.4073,-96.7122,0.0,7.3,121.0,9.1,'11111222,11111222,11111222' 
TCOON,ioos:station:TCOON:031:1,2009-08-07T05:00:00Z,28.4073,-96.7122,0.0,6.6,125.0,7.7,'11111222,11111222,11111222' 
TCOON,ioos:station:TCOON:031:1,2009-08-07T06:00:00Z,28.4073,-96.7122,0.0,6.9,122.0,7.7,'11111222,11111222,11111222' 
TCOON,ioos:station:TCOON:031:1,2009-08-07T07:00:00Z,28.4073,-96.7122,0.0,6.8,134.0,8.2,'11111222,11111222,11111222' 
TCOON,ioos:station:TCOON:031:1,2009-08-07T08:00:00Z,28.4073,-96.7122,0.0,6.5,132.0,9.1,'11111222,11111222,11111222' 
TCOON,ioos:station:TCOON:031:1,2009-08-07T09:00:00Z,28.4073,-96.7122,0.0,7.1,133.0,8.4,'11111222,11111222,11111222' 
TCOON,ioos:station:TCOON:031:1,2009-08-07T10:00:00Z,28.4073,-96.7122,0.0,6.0,149.0,6.9,'11111222,11111222,11111222' 
TCOON,ioos:station:TCOON:031:1,2009-08-07T11:00:00Z,28.4073,-96.7122,0.0,4.8,140.0,5.9,'11111222,11111222,11111222' 
TCOON,ioos:station:TCOON:031:1,2009-08-07T12:00:00Z,28.4073,-96.7122,0.0,5.2,145.0,5.7,'11111222,11111222,11111222' 
TCOON,ioos:station:TCOON:031:1,2009-08-07T13:00:00Z,28.4073,-96.7122,0.0,3.4,194.0,4.0,'11111222,11111222,11111222' 
TCOON,ioos:station:TCOON:031:1,2009-08-07T14:00:00Z,28.4073,-96.7122,0.0,2.3,179.0,3.7,'11111222,11111222,11111222' 
TCOON,ioos:station:TCOON:031:1,2009-08-07T15:00:00Z,28.4073,-96.7122,0.0,2.5,140.0,3.2,'11111222,11111222,11111222' 
TCOON,ioos:station:TCOON:031:1,2009-08-07T16:00:00Z,28.4073,-96.7122,0.0,2.6,169.0,3.9,'11111222,11111222,11111222' 
TCOON,ioos:station:TCOON:031:1,2009-08-07T17:00:00Z,28.4073,-96.7122,0.0,4.7,145.0,5.3,'11111222,11111222,11111222' 
TCOON,ioos:station:TCOON:031:1,2009-08-07T18:00:00Z,28.4073,-96.7122,0.0,5.6,150.0,6.1,'11111222,11111222,11111222' 
TCOON,ioos:station:TCOON:031:1,2009-08-07T19:00:00Z,28.4073,-96.7122,0.0,6.9,137.0,7.8,'11111222,11111222,11111222' 
TCOON,ioos:station:TCOON:031:1,2009-08-07T20:00:00Z,28.4073,-96.7122,0.0,8.3,126.0,9.4,'11111222,11111222,11111222' 
TCOON,ioos:station:TCOON:031:1,2009-08-07T21:00:00Z,28.4073,-96.7122,0.0,7.2,124.0,9.5,'11111222,11111222,11111222' 
TCOON,ioos:station:TCOON:031:1,2009-08-07T22:00:00Z,28.4073,-96.7122,0.0,7.4,125.0,9.2,'11111222,11111222,11111222' 
TCOON,ioos:station:TCOON:031:1,2009-08-07T23:00:00Z,28.4073,-96.7122,0.0,7.6,126.0,9.1,'11111222,11111222,11111222' 
TCOON,ioos:station:TCOON:031:1,2009-08-08T00:00:00Z,28.4073,-96.7122,0.0,5.7,106.0,8.9,'11111222,11111222,11111222' 
TCOON,ioos:station:TCOON:031:1,2009-08-08T01:00:00Z,28.4073,-96.7122,0.0,4.7,97.0,5.8,'11111222,11111222,11111222' 
TCOON,ioos:station:TCOON:031:1,2009-08-08T02:00:00Z,28.4073,-96.7122,0.0,4.8,103.0,5.9,'11111222,11111222,11111222' 
TCOON,ioos:station:TCOON:031:1,2009-08-08T03:00:00Z,28.4073,-96.7122,0.0,2.9,90.0,4.3,'11111222,11111222,11111222' 
TCOON,ioos:station:TCOON:031:1,2009-08-08T04:00:00Z,28.4073,-96.7122,0.0,3.9,102.0,5.6,'11111222,11111222,11111222' 
TCOON,ioos:station:TCOON:031:1,2009-08-08T05:00:00Z,28.4073,-96.7122,0.0,5.0,101.0,6.0,'11111222,11111222,11111222' 
TCOON,ioos:station:TCOON:031:1,2009-08-08T06:00:00Z,28.4073,-96.7122,0.0,4.9,102.0,6.9,'11111222,11111222,11111222' 
TCOON,ioos:station:TCOON:031:1,2009-08-08T07:00:00Z,28.4073,-96.7122,0.0,5.4,110.0,6.6,'11111222,11111222,11111222' 
TCOON,ioos:station:TCOON:031:1,2009-08-08T08:00:00Z,28.4073,-96.7122,0.0,5.2,113.0,6.9,'11111222,11111222,11111222' 
TCOON,ioos:station:TCOON:031:1,2009-08-08T09:00:00Z,28.4073,-96.7122,0.0,4.1,120.0,4.8,'11111222,11111222,11111222' 
TCOON,ioos:station:TCOON:031:1,2009-08-08T10:00:00Z,28.4073,-96.7122,0.0,4.2,118.0,5.5,'11111222,11111222,11111222' 
TCOON,ioos:station:TCOON:031:1,2009-08-08T11:00:00Z,28.4073,-96.7122,0.0,2.5,107.0,3.3,'11111222,11111222,11111222' 
TCOON,ioos:station:TCOON:031:1,2009-08-08T12:00:00Z,28.4073,-96.7122,0.0,2.4,71.0,2.8,'11111222,11111222,11111222' 
TCOON,ioos:station:TCOON:031:1,2009-08-08T13:00:00Z,28.4073,-96.7122,0.0,5.5,124.0,5.9,'11111222,11111222,11111222' 
TCOON,ioos:station:TCOON:031:1,2009-08-08T14:00:00Z,28.4073,-96.7122,0.0,5.0,139.0,5.7,'11111222,11111222,11111222' 
TCOON,ioos:station:TCOON:031:1,2009-08-08T15:00:00Z,28.4073,-96.7122,0.0,5.4,142.0,5.8,'11111222,11111222,11111222' 
TCOON,ioos:station:TCOON:031:1,2009-08-08T16:00:00Z,28.4073,-96.7122,0.0,6.4,128.0,9.4,'11111222,11111222,11111222' 
TCOON,ioos:station:TCOON:031:1,2009-08-08T17:00:00Z,28.4073,-96.7122,0.0,6.2,143.0,7.2,'11111222,11111222,11111222' 
TCOON,ioos:station:TCOON:031:1,2009-08-08T18:00:00Z,28.4073,-96.7122,0.0,6.2,131.0,7.4,'11111222,11111222,11111222' 
TCOON,ioos:station:TCOON:031:1,2009-08-08T19:00:00Z,28.4073,-96.7122,0.0,6.3,138.0,7.9,'11111222,11111222,11111222' 
TCOON,ioos:station:TCOON:031:1,2009-08-08T20:00:00Z,28.4073,-96.7122,0.0,7.4,134.0,9.1,'11111222,11111222,11111222' 
TCOON,ioos:station:TCOON:031:1,2009-08-08T21:00:00Z,28.4073,-96.7122,0.0,9.1,123.0,10.2,'11111222,11111222,11111222' 
TCOON,ioos:station:TCOON:031:1,2009-08-08T22:00:00Z,28.4073,-96.7122,0.0,8.4,124.0,10.6,'11111222,11111222,11111222' 
TCOON,ioos:station:TCOON:031:1,2009-08-08T23:00:00Z,28.4073,-96.7122,0.0,8.0,124.0,10.1,'11111222,11111222,11111222' 
TCOON,ioos:station:TCOON:031:1,2009-08-09T00:00:00Z,28.4073,-96.7122,0.0,7.7,115.0,9.4,'11111222,11111222,11111222' 
TCOON,ioos:station:TCOON:031:1,2009-08-09T01:00:00Z,28.4073,-96.7122,0.0,6.2,109.0,8.4,'11111222,11111222,11111222' 
TCOON,ioos:station:TCOON:031:1,2009-08-09T02:00:00Z,28.4073,-96.7122,0.0,7.4,106.0,9.3,'11111222,11111222,11111222' 
TCOON,ioos:station:TCOON:031:1,2009-08-09T03:00:00Z,28.4073,-96.7122,0.0,7.1,111.0,8.8,'11111222,11111222,11111222' 
TCOON,ioos:station:TCOON:031:1,2009-08-09T04:00:00Z,28.4073,-96.7122,0.0,5.8,100.0,7.9,'11111222,11111222,11111222' 
TCOON,ioos:station:TCOON:031:1,2009-08-09T05:00:00Z,28.4073,-96.7122,0.0,7.2,108.0,9.3,'11111222,11111222,11111222' 
TCOON,ioos:station:TCOON:031:1,2009-08-09T06:00:00Z,28.4073,-96.7122,0.0,6.4,114.0,8.3,'11111222,11111222,11111222' 
TCOON,ioos:station:TCOON:031:1,2009-08-09T07:00:00Z,28.4073,-96.7122,0.0,7.0,117.0,7.8,'11111222,11111222,11111222' 
TCOON,ioos:station:TCOON:031:1,2009-08-09T08:00:00Z,28.4073,-96.7122,0.0,6.2,123.0,6.9,'11111222,11111222,11111222' 
TCOON,ioos:station:TCOON:031:1,2009-08-09T09:00:00Z,28.4073,-96.7122,0.0,7.0,122.0,8.7,'11111222,11111222,11111222' 
TCOON,ioos:station:TCOON:031:1,2009-08-09T10:00:00Z,28.4073,-96.7122,0.0,7.2,133.0,8.9,'11111222,11111222,11111222' 
TCOON,ioos:station:TCOON:031:1,2009-08-09T11:00:00Z,28.4073,-96.7122,0.0,6.6,129.0,8.6,'11111222,11111222,11111222' 
TCOON,ioos:station:TCOON:031:1,2009-08-09T12:00:00Z,28.4073,-96.7122,0.0,6.7,124.0,7.5,'11111222,11111222,11111222' 
TCOON,ioos:station:TCOON:031:1,2009-08-09T13:00:00Z,28.4073,-96.7122,0.0,5.9,133.0,7.1,'11111222,11111222,11111222' 
TCOON,ioos:station:TCOON:031:1,2009-08-09T14:00:00Z,28.4073,-96.7122,0.0,6.1,145.0,6.9,'11111222,11111222,11111222' 
TCOON,ioos:station:TCOON:031:1,2009-08-09T15:00:00Z,28.4073,-96.7122,0.0,5.7,141.0,6.8,'11111222,11111222,11111222' 